Torna al catalogo

PELICAN-6 300D

AttivoScienzaSSO
NORAD 66703·PAYLOAD·🇺🇸 United States

Lanciato Nov 28, 2025 da Vandenberg Space Force Base

Loading…

Prossimi Passaggi (prossime 24 ore)

TLE

AggiornatoSource: CelesTrak SupGP

Epoca: Sep 14, 2026, 20:44 UTC

1 66703C 25276AP  26257.86436343 -.00000396  00000+0 -11730-4 0  2575
2 66703  97.3309 332.5368 0001983 100.8075 306.7682 15.34933961    14

Traccia PELICAN-6 300D in tempo reale con AllMySat

Download on the App Store